Find Kosmos-1478

NORAD ID: 14176 Int'l Des: 1983-069 Owner: GUKOS Country: SU operational
LEOCIRCULAR

Current View

Loading 3D Globe...

About Kosmos-1478

Description loading...

Upcoming Passes

Passes for default location (London). Set your location on the main map for personalized predictions.

Altitude History

Loading altitude history...

Two-Line Element Set

1 14176U 83069F 26151.23103916 -.00000003 00000-0 87781-4 0 9994
2 14176 74.0271 62.1715 0012321 194.7740 321.5376 12.48263395955026
Epoch: May 31, 2026 • Age: 7 hours

Current Status

Altitude 1483.1 km
Velocity 7.12 km/s
Sub-Earth Point 8.95°N, 11.45°W
Launch Date Jul 6, 1983
Age 42.9 years
Type other

Technical Details

Classification Payload
Mass 60.00 kg
Dry Mass 60.00 kg
Total Mass 60.00 kg
Length 0.80 m
Diameter 0.80 m
Span 0.80 m
Shape Poly
Manufacturer NPOPM
Bus Type Strela-1 11F625
Phase Status In Orbit
Owner/State GUKOS/SU

Most Searched